METEOR 2-5 DEB, 29293

Orbit data source: Space-Track

METEOR 2-5 DEB, 29293 is space debris in LEO originally from a launch on Wed, 31 Oct 1979 UTC launched from the Plesetsk Missile And Space Complex (PKMTR). Debris objects in space refer to the collection of defunct objects orbiting the Earth. Examples of debris include non-operational satellites, rocket bodies, and fragments generated from explosions, collisions, or faulty payload assembly.

Loading next visibility...
Identifier
29293, 1979-095S
Orbit
LEO
Country
Flag of CISCIS
Related business
Manufacturer
Unknown
Mission
Spacecraft
Bus & Motor
Unknown
Mass
Unknown
Launch date (UTC)
1979-10-31 (47 years ago)
Launch vehicle
Unknown
Launch site
Plesetsk Missile And Space Complex (PKMTR)
Object type
Payload
Rocket body
Debris
Shape & HBR
Unknown shape, 0.1 m
Radar Cross Section
Small (<0.1 m²)

Expand to show TLE details & history
Last TLE update: 22 hours ago

TLE from 22 hours ago
0 METEOR 2-5 DEB
1 29293U 79095S   26123.27298377  .00007011  00000-0  18568-2 0  9993
2 29293  81.1951 132.7757 0004158  86.2396 273.9271 14.48693452108901
Epoch: 2026-05-03T06:33Z
TLE epoch observation values (Epoch: 2026-05-03T06:33:05.797Z)
Latitude
-0.00007°
Longitude
173.32263°
Altitude
732.668 km
Speed
7.489 km/s
True Right ascension
08h 51m 06s
True Declination
0° 00' 00"
Sunlit
Object was in daylight at epoch
Visualization orbit readout
Latitude
Unknown
Longitude
Unknown
Altitude
Unknown
Speed
Unknown
Apparent Right ascension
Unknown
Apparent Declination
Unknown
Sunlit
N/A
Visualization observer readout
Local Sidereal Time
12:23:38
Azimuth
Unknown
Elevation
Unknown
Doppler factor
Unknown
Orbital elements
Apogee altitude
729.998 km
Perigee altitude
724.09 km
Semi-major axis
7,105.181 km
Eccentricity
0.00042
Inclination
81.1951°
RAAN
132.7757°
Arg. of periapsis
86.2396°
True anomaly
273.87956°
Mean anomaly
273.9271°
Eccentric anomaly
273.90333°
Mean motion
3.62394 °/min
Orbital period
99.34 mins
BSTAR
0.0018568
Loading maneuver chart data...
Computing Atmospheric mass density...

Documentation

Showing up to 5 results
|